Wind_Speed
8 8 8 8 9 9 10 9 7 7 8 9 9 11 11 13 17 20 22 25 27 29 33 36 40 44 49 50 51 55 53 51 52 52 50 50 49 48 48 48 46 45 42 42
6 6 6 6 6 7 8 7 6 4 5 6 7 7 7 9 14 17 19 21 23 25 29 34 38 42 46 49 50 53 52 51 52 51 49 50 49 47 47 47 46 44 43 43
4 4 5 5 5 6 5 4 3 3 4 4 4 4 5 7 10 12 14 17 20 23 27 30 35 40 43 45 47 49 52 51 50 48 46 46 46 46 45 46 46 45 44 44
2 3 3 3 3 4 2 3 1 1 1 1 1 1 4 7 8 10 11 14 16 20 22 28 32 35 39 41 43 45 46 47 48 48 45 43 45 45 45 45 45 45 44 45
1 2 2 1 1 1 1 2 2 2 2 2 2 1 4 7 8 8 9 12 14 17 18 23 28 32 34 37 39 38 39 42 44 45 43 41 43 44 44 45 45 46 45 45
0 1 1 1 2 2 3 3 4 4 3 3 3 4 6 6 6 7 9 12 12 14 16 19 24 29 31 34 35 35 36 38 40 42 41 40 41 43 42 44 43 43 45 45
1 2 2 3 3 3 4 5 5 5 4 4 4 4 5 5 5 6 7 10 12 13 14 16 20 24 26 29 30 31 32 34 37 38 38 38 38 41 42 44 45 45 46 46
2 2 2 3 3 4 4 4 6 5 4 5 4 5 4 4 4 5 6 7 9 10 11 13 17 22 24 25 26 25 26 29 33 35 35 36 36 39 42 43 46 46 46 46
2 2 2 2 3 3 4 4 5 5 5 5 5 5 5 5 5 6 5 5 8 9 9 11 13 17 19 20 22 24 24 26 30 32 32 34 35 36 38 41 43 43 44 45
3 3 3 3 3 4 5 4 4 5 4 5 6 6 5 5 4 4 4 5 5 7 7 8 9 12 15 16 17 19 22 24 25 27 27 28 31 33 34 35 38 40 41 43
5 5 5 4 4 4 4 4 4 4 4 4 4 4 4 4 4 4 5 4 4 4 4 6 7 10 12 14 16 17 18 21 22 24 26 27 28 30 32 33 35 38 40 40
6 6 6 6 5 4 4 4 3 3 3 3 3 4 4 3 3 4 4 3 3 2 4 6 8 9 10 12 14 16 18 20 21 23 25 26 29 31 32 33 35 38 41 42
7 7 7 7 6 6 5 4 3 3 3 2 2 3 3 2 2 2 2 2 2 2 4 6 8 9 9 11 13 15 17 20 22 23 25 27 28 30 31 32 34 36 39 41
7 8 7 7 7 6 6 4 3 2 2 2 2 1 1 1 1 1 1 1 2 3 4 4 7 8 9 10 13 14 16 19 22 24 26 28 28 30 32 33 34 35 35 37
7 7 8 8 8 7 7 6 5 4 3 2 3 2 2 1 1 1 1 2 2 4 6 7 8 10 11 12 14 16 18 21 22 24 27 28 30 30 31 32 33 34 34 34
7 7 7 7 8 7 7 6 6 5 4 3 3 3 3 2 1 2 3 4 4 5 7 8 10 12 13 15 17 19 21 23 24 25 27 28 29 31 33 34 34 33 34 35
5 5 5 6 6 6 6 5 5 5 5 4 4 4 4 3 3 3 4 5 6 8 9 11 13 15 16 17 19 21 22 23 25 26 28 29 30 32 33 33 33 34 35 35
4 3 3 4 3 3 4 4 4 4 4 5 5 5 5 5 5 6 7 8 9 11 12 14 16 17 19 20 21 22 24 25 27 29 30 31 32 33 33 33 33 34 35 36
4 3 2 2 1 2 1 2 3 3 3 4 5 6 6 7 7 8 9 10 12 13 15 16 18 20 21 23 24 25 27 29 30 31 33 34 36 36 36 36 35 36 36 37
3 3 2 1 1 1 0 1 2 3 4 5 6 7 8 9 10 11 12 13 15 16 18 19 21 23 24 25 27 28 30 32 33 34 35 36 38 37 37 37 37 38 38 38
3 2 1 1 1 2 2 3 4 5 6 7 8 10 11 12 13 15 15 16 17 19 20 22 24 25 26 28 29 31 33 34 35 36 37 38 38 38 38 38 38 39 39 39
4 3 2 2 2 3 4 5 6 7 8 9 11 12 13 14 15 17 17 18 19 20 22 23 25 28 30 31 32 34 35 36 37 38 39 40 39 39 40 40 40 41 41 41
5 4 4 4 4 5 6 7 8 9 10 12 13 14 15 16 17 18 19 20 21 22 24 26 28 31 33 34 36 38 38 38 38 39 39 39 39 40 40 41 41 42 42 41
9 8 7 7 7 8 8 9 10 11 12 14 15 16 17 18 19 20 22 23 24 25 27 29 31 33 35 37 38 39 39 39 39 39 39 39 39 40 40 40 41 41 41 41
12 12 11 10 10 11 11 12 13 14 15 16 17 18 19 20 21 23 24 25 27 28 29 31 33 35 37 38 38 39 39 39 39 39 39 39 39 39 39 39 40 40 40 40
14 14 13 13 13 14 14 14 15 17 17 18 19 20 21 22 23 25 26 27 29 30 32 34 35 37 38 38 38 39 39 39 38 38 38 38 38 38 38 38 39 39 39 39
Wind_Direction
295 295 300 299 302 308 307 299 297 291 273 268 256 249 241 224 217 217 214 212 215 216 213 214 213 210 210 210 210 211 212 213 215 218 221 222 224 226 230 231 234 235 237 240
286 295 305 307 309 309 309 305 302 288 268 261 251 240 227 215 212 212 210 210 209 212 213 215 214 209 209 210 212 212 214 216 216 218 220 222 224 227 229 231 233 236 239 241
293 299 306 312 321 323 321 317 312 262 245 246 219 207 197 194 200 204 209 210 212 213 210 213 212 209 210 210 211 212 213 214 217 219 219 221 224 226 230 232 235 237 240 242
294 318 314 321 321 327 350 352 350 218 238 212 203 195 194 196 195 204 202 200 209 209 210 214 213 211 211 211 212 213 212 215 218 220 222 225 226 227 230 235 237 238 242 244
285 318 327 333 2 359 27 27 64 114 124 118 111 115 147 183 184 197 198 198 204 207 209 213 216 213 212 212 211 212 214 218 220 222 223 225 226 228 232 236 237 239 242 245
31 357 19 88 108 108 108 92 106 118 114 114 117 128 134 149 178 189 194 200 203 208 215 215 216 216 215 213 211 215 220 222 223 223 226 230 232 231 232 237 241 244 245 247
111 76 93 114 122 120 111 108 116 118 107 113 119 128 134 138 157 172 184 198 204 211 216 215 215 218 217 216 215 220 224 224 225 224 228 231 234 234 235 238 241 245 247 249
129 105 114 127 120 122 121 112 114 112 104 109 109 117 120 132 142 153 165 177 192 198 209 217 223 228 227 222 221 226 231 230 229 228 232 233 238 239 241 243 245 247 249 251
98 99 117 127 123 130 129 127 123 115 112 110 106 115 104 107 121 132 151 170 182 189 201 216 226 231 231 230 234 235 235 234 234 233 238 241 242 245 246 247 247 249 251 251
94 93 111 116 112 134 138 129 124 133 132 109 105 109 103 97 103 125 136 154 163 174 188 208 223 231 233 235 238 241 241 243 244 243 245 251 252 252 251 252 252 252 252 253
91 93 99 102 109 129 138 138 128 127 125 121 108 101 101 94 97 113 131 136 159 169 189 211 220 225 231 239 243 246 249 249 254 254 256 259 259 259 258 257 256 256 256 257
94 94 96 94 99 111 128 134 136 123 124 116 94 100 101 103 95 104 135 148 162 187 198 206 214 223 232 237 244 250 254 260 263 264 265 267 268 266 264 262 262 262 261 261
97 92 96 100 99 102 116 124 131 116 116 133 125 111 93 69 73 100 145 172 189 219 215 213 213 220 230 242 252 259 262 266 268 270 271 273 273 270 268 267 268 269 267 265
100 92 91 95 98 101 108 110 115 114 99 107 102 101 130 45 29 46 102 195 224 246 250 248 243 243 245 252 258 267 272 273 273 274 276 276 275 273 274 273 274 273 271 269
106 98 97 96 99 101 105 105 97 91 82 74 72 56 58 48 343 324 298 265 270 274 273 272 268 269 271 271 272 276 281 281 281 281 280 279 276 277 278 278 279 277 275 273
115 109 103 100 100 96 97 94 87 80 73 55 32 23 28 33 321 297 304 289 284 288 285 281 277 276 276 279 280 284 286 286 286 285 284 283 281 281 281 279 278 278 277 276
121 117 112 106 104 102 95 85 78 70 61 47 36 32 32 18 353 321 298 292 283 281 280 279 279 277 279 279 281 280 283 286 285 286 284 282 282 283 281 279 278 277 277 276
129 127 120 113 107 114 92 79 69 58 45 39 30 20 12 7 348 324 305 296 292 289 288 287 287 286 286 285 284 283 284 286 286 285 283 282 282 281 281 280 279 278 278 277
138 136 130 131 116 116 100 59 32 22 9 6 4 356 346 340 335 325 311 303 299 296 294 293 293 293 290 289 288 287 287 286 285 284 283 282 282 280 280 279 278 278 278 277
156 147 135 93 46 58 44 350 347 346 338 335 332 331 329 325 321 317 311 302 298 296 294 295 296 296 295 292 290 290 289 287 285 285 285 285 284 282 281 280 279 279 278 277
186 184 192 313 340 351 334 323 326 324 328 326 322 320 320 317 314 312 308 304 301 299 297 296 298 298 298 296 293 291 291 289 286 286 285 285 284 284 284 282 281 280 279 278
207 225 248 287 313 317 318 315 314 316 318 320 322 321 320 319 318 316 312 308 306 303 301 301 302 302 301 300 297 293 291 290 287 287 286 286 285 284 284 283 283 282 280 278
226 243 261 279 294 307 311 307 308 310 313 315 317 319 319 319 319 319 316 311 307 305 303 303 305 306 305 303 301 296 293 291 289 288 287 285 284 284 284 283 284 282 280 279
241 251 261 271 282 292 298 301 303 306 310 314 314 314 315 316 316 316 316 314 312 308 305 305 306 307 306 305 303 299 295 292 290 289 288 286 285 284 283 282 282 281 280 279
248 254 262 270 276 283 290 295 300 303 306 309 311 312 313 314 315 316 317 317 315 311 307 306 307 307 306 305 304 301 298 294 291 290 288 286 285 284 283 282 282 281 281 280
254 259 264 270 275 280 286 291 296 300 303 305 307 309 311 312 314 315 315 315 315 314 311 309 308 308 308 307 305 303 301 298 293 290 289 287 286 285 283 282 281 280 280 281
Height
5624 5624 5622 5620 5618 5617 5615 5613 5612 5611 5611 5611 5611 5612 5613 5614 5617 5620 5623 5628 5634 5639 5645 5651 5657 5664 5673 5681 5690 5699 5709 5718 5726 5733 5739 5745 5751 5757 5763 5769 5773 5778 5782 5786
5623 5622 5620 5618 5617 5615 5614 5612 5612 5611 5610 5610 5610 5611 5612 5614 5616 5619 5623 5627 5632 5637 5643 5649 5655 5662 5669 5676 5685 5693 5702 5710 5718 5726 5732 5738 5744 5750 5755 5760 5765 5770 5774 5778
5620 5620 5618 5617 5616 5615 5614 5612 5612 5611 5611 5611 5611 5612 5613 5614 5617 5619 5623 5627 5631 5636 5641 5646 5652 5659 5666 5673 5681 5688 5696 5704 5712 5718 5725 5730 5736 5741 5747 5752 5757 5762 5766 5769
5619 5618 5617 5617 5615 5614 5614 5613 5612 5612 5612 5612 5613 5613 5614 5615 5617 5620 5623 5627 5631 5635 5639 5644 5650 5656 5663 5670 5678 5684 5691 5699 5706 5712 5718 5724 5729 5735 5741 5745 5749 5753 5757 5761
5619 5618 5617 5616 5616 5615 5614 5613 5613 5613 5613 5614 5614 5615 5617 5617 5618 5620 5623 5627 5631 5635 5639 5644 5649 5655 5661 5667 5674 5681 5687 5694 5701 5707 5713 5717 5723 5728 5733 5737 5741 5745 5748 5752
5618 5618 5617 5616 5616 5615 5615 5615 5615 5615 5615 5616 5617 5618 5619 5619 5620 5622 5625 5628 5632 5635 5639 5643 5648 5654 5659 5665 5672 5678 5684 5689 5695 5701 5706 5711 5716 5720 5725 5729 5733 5736 5739 5743
5618 5618 5617 5617 5617 5617 5617 5617 5617 5617 5617 5618 5619 5619 5621 5621 5622 5624 5627 5629 5632 5635 5639 5643 5648 5653 5658 5664 5669 5675 5680 5685 5690 5696 5700 5705 5709 5712 5716 5720 5724 5727 5730 5733
5618 5618 5618 5617 5618 5617 5617 5618 5619 5619 5619 5620 5620 5621 5623 5623 5624 5626 5628 5630 5632 5636 5639 5643 5648 5652 5657 5662 5667 5672 5677 5681 5686 5691 5695 5698 5701 5705 5708 5712 5715 5718 5721 5723
5618 5619 5618 5618 5618 5619 5619 5619 5620 5621 5621 5622 5622 5623 5624 5625 5626 5627 5629 5631 5633 5636 5639 5643 5647 5651 5655 5660 5665 5669 5674 5678 5681 5686 5689 5692 5695 5697 5700 5703 5705 5708 5710 5712
5619 5619 5619 5619 5619 5620 5621 5621 5622 5622 5622 5623 5624 5625 5626 5627 5628 5629 5630 5632 5634 5637 5640 5644 5647 5650 5654 5658 5662 5666 5670 5674 5677 5680 5682 5685 5688 5690 5692 5694 5696 5698 5700 5702
5620 5621 5621 5621 5621 5621 5622 5623 5623 5623 5624 5625 5625 5629 5627 5628 5629 5631 5632 5634 5636 5638 5640 5643 5646 5650 5653 5657 5660 5663 5667 5670 5673 5675 5677 5679 5681 5682 5684 5685 5687 5688 5690 5691
5622 5622 5622 5623 5623 5623 5623 5624 5625 5626 5626 5626 5627 5632 5629 5630 5631 5632 5633 5634 5636 5638 5640 5643 5646 5648 5651 5654 5657 5660 5663 5665 5668 5670 5671 5673 5673 5674 5676 5677 5677 5678 5679 5680
5623 5624 5624 5625 5626 5626 5625 5625 5626 5627 5628 5628 5629 5633 5630 5631 5632 5633 5634 5635 5636 5638 5640 5642 5645 5647 5649 5652 5654 5656 5658 5660 5662 5664 5665 5666 5666 5666 5667 5667 5667 5668 5668 5668
5625 5626 5626 5627 5626 5626 5627 5627 5628 5629 5629 5629 5630 5631 5631 5632 5633 5633 5634 5636 5637 5638 5639 5641 5643 5645 5647 5649 5650 5652 5653 5655 5656 5657 5657 5657 5657 5658 5658 5658 5657 5657 5657 5656
5627 5627 5627 5627 5628 5628 5628 5629 5630 5630 5630 5631 5631 5631 5632 5632 5633 5633 5634 5635 5636 5637 5638 5640 5642 5643 5644 5645 5646 5647 5648 5649 5649 5649 5649 5649 5649 5649 5649 5648 5648 5647 5646 5646
5628 5629 5629 5630 5630 5630 5630 5631 5631 5631 5632 5632 5632 5632 5632 5632 5632 5633 5633 5634 5635 5636 5637 5638 5639 5639 5640 5641 5642 5642 5642 5642 5642 5641 5641 5640 5640 5639 5639 5638 5637 5637 5636 5635
5629 5630 5631 5631 5631 5632 5633 5633 5633 5633 5633 5633 5633 5634 5633 5633 5633 5633 5633 5633 5634 5634 5635 5635 5636 5636 5636 5636 5637 5636 5636 5635 5634 5633 5632 5631 5630 5629 5628 5627 5626 5626 5625 5624
5631 5631 5631 5632 5633 5633 5636 5633 5634 5634 5634 5633 5633 5633 5633 5633 5633 5632 5632 5632 5632 5632 5632 5632 5632 5631 5631 5630 5630 5629 5628 5627 5626 5624 5623 5621 5620 5619 5617 5616 5615 5614 5613 5612
5631 5632 5632 5633 5633 5634 5635 5634 5634 5634 5634 5633 5633 5633 5632 5632 5632 5631 5630 5629 5629 5628 5628 5628 5627 5626 5625 5624 5622 5621 5619 5618 5616 5614 5612 5611 5609 5607 5606 5604 5603 5602 5601 5599
5632 5633 5634 5633 5633 5634 5636 5634 5633 5634 5634 5633 5632 5631 5631 5630 5630 5630 5628 5626 5625 5624 5624 5623 5621 5619 5618 5616 5614 5612 5609 5607 5605 5603 5601 5599 5597 5595 5593 5592 5590 5589 5588 5586
5632 5633 5633 5633 5633 5634 5634 5633 5633 5634 5634 5632 5631 5630 5629 5627 5627 5625 5623 5622 5620 5619 5618 5616 5614 5612 5610 5608 5605 5602 5599 5596 5593 5591 5589 5586 5584 5582 5580 5579 5577 5576 5574 5573
5632 5632 5632 5632 5632 5635 5632 5632 5632 5632 5630 5629 5628 5627 5626 5624 5622 5620 5618 5616 5615 5613 5611 5610 5607 5605 5602 5599 5596 5592 5589 5585 5581 5579 5576 5573 5570 5568 5566 5565 5563 5561 5560 5559
5630 5631 5631 5632 5634 5632 5631 5630 5630 5629 5628 5627 5625 5624 5622 5621 5618 5616 5614 5612 5610 5607 5605 5603 5600 5597 5592 5588 5584 5580 5576 5572 5569 5565 5562 5560 5557 5554 5552 5551 5549 5547 5546 5544
5629 5629 5629 5629 5630 5629 5628 5627 5627 5626 5625 5624 5622 5620 5619 5617 5614 5612 5609 5606 5603 5600 5597 5595 5592 5588 5583 5578 5573 5568 5563 5560 5556 5552 5549 5546 5543 5541 5539 5538 5536 5534 5532 5531
5626 5626 5626 5627 5627 5626 5625 5625 5624 5622 5621 5620 5618 5616 5614 5612 5609 5606 5603 5600 5596 5593 5589 5586 5582 5578 5572 5567 5562 5556 5551 5547 5543 5539 5536 5533 5531 5529 5527 5525 5523 5521 5519 5517
5622 5623 5623 5624 5623 5623 5622 5621 5619 5618 5617 5615 5613 5611 5609 5606 5603 5600 5597 5593 5589 5585 5581 5577 5572 5567 5561 5556 5550 5545 5539 5534 5530 5527 5524 5521 5519 5517 5515 5513 5511 5508 5507 5505